Regional Weather Roundup
Issued by NWS Upton, NY

Current Version | Previous Version | Graphics & Text | Print | Product List | Glossary Off
Versions: 1 2 3 4 5 6 7 8 9 10 11 12 13 14 15 16 17 18 19 20 21 22 23 24 25 26 27 28 29 30 31 32 33 34 35 36 37 38 39 40 41 42 43 44 45 46 47 48 49 50

201
ASUS41 KOKX 081308
RWROKX

REGIONAL WEATHER ROUNDUP
NATIONAL WEATHER SERVICE NEW YORK NY
800 AM EST THU DEC 08 2016

NOTE: "FAIR" INDICATES FEW OR NO CLOUDS BELOW 12,000 FEET WITH NO
SIGNIFICANT WEATHER AND/OR OBSTRUCTIONS TO VISIBILITY.

NYZ071-072-176-178-NJZ106-104-081400-
NEW YORK CITY METRO AREA

CITY           SKY/WX    TMP DP  RH WIND       PRES   REMARKS
Central Park   CLOUDY    40  28  62 W3        30.00S
Wall St Helipt CLOUDY    40  31  70 W6        30.00S
Bronx Bot Gard NOT AVBL
LaGuardia APRT MOCLDY    43  28  55 NW8       29.98S
Kennedy INTL   CLOUDY    41  31  67 W9        30.00S
Breezy Point     N/A     39 N/A N/A W7          N/A  WCI  34
Newark/Liberty CLOUDY    38  29  70 SW8       29.98F WCI  32
Teterboro      MOCLDY    41  31  67 S9G20     29.98S
$$

NYZ177-179-078>081-081400-
LONG ISLAND NEW YORK

CITY           SKY/WX    TMP DP  RH WIND       PRES   REMARKS
Jones Beach      N/A     41 N/A N/A W10         N/A
Matinecock PT    N/A     43 N/A N/A W12         N/A
Farmingdale    CLOUDY    37  33  85 W5        29.97F WCI  33
MacArthur/ISP  CLOUDY    35  33  92 W5        29.96S WCI  31
Shirley        CLOUDY    33  33 100 W3        29.97S FOG
Westhampton    PTCLDY    29  27  92 CALM      29.98S
Southampton    NOT AVBL
Bridgehampton  NOT AVBL
East Hampton     N/A     31  30  95 CALM      29.96S
Montauk          N/A     42  37  82 SW5       29.96F
$$

NYZ052-065-067-081400-
HUDSON VALLEY

CITY           SKY/WX    TMP DP  RH WIND       PRES   REMARKS
White Plains   CLOUDY    35  30  82 W3        29.95S
Newburgh       MOCLDY    34  30  86 W6        29.95F WCI  29
Montgomery     CLOUDY    32  30  92 SW3       29.93F
Poughkeepsie   CLOUDY    34  30  85 SW6       29.94F WCI  29
Albany         FOG       32  30  92 S5        29.91F VSB 3/4 WCI  27
$$

NJZ001-105-106-008-010-013-015-019>022-104-081400-
NEW JERSEY

CITY           SKY/WX    TMP DP  RH WIND       PRES   REMARKS
Newark/Liberty CLOUDY    38  29  70 SW8       29.98F WCI  32
Teterboro      MOCLDY    41  31  67 S9G20     29.98S
Caldwell       CLOUDY    34  32  92 SW3       29.98F
Somerville     CLOUDY    30  29  96 CALM      29.98R FOG
Linden         CLOUDY    37  28  71 W3        30.00R
Sussex         CLOUDY    31  30  96 CALM      29.95F FOG
Andover          N/A     32  31  96 CALM      29.96F
Trenton        CLOUDY    33  30  88 CALM      30.00S
Millville      CLOUDY    32  32 100 CALM      30.03S FOG
Atlantic City  CLOUDY    35  30  82 W5        30.03R WCI  31
Wrightstown    CLOUDY    34  29  82 W5        29.98F WCI  30
Toms River     CLOUDY    31  30  96 W3        30.02S
Belmar         CLOUDY    34  32  92 SW6       30.01R WCI  29
$$

PAZ047>061-062-071-081400-
EASTERN PENNSYLVANIA

CITY           SKY/WX    TMP DP  RH WIND       PRES   REMARKS
Philadelphia   CLOUDY    38  30  73 SW5       30.02F WCI  34
Allentown      MOCLDY    34  26  72 SW7       29.99R WCI  28
Scranton       CLOUDY    34  23  64 S6        29.92F WCI  29
$$

CTZ002-004>006-009-010-012-RIZ004-006-007-MAZ004-011-015-081400-
SOUTHERN NEW ENGLAND
 IN CT

CITY           SKY/WX    TMP DP  RH WIND       PRES   REMARKS
Bradley INTL   CLOUDY    28  27  96 CALM      29.95R FOG
Hartford       FOG       30  30 100 CALM      29.95S VSB 1/4
Danbury        CLOUDY    29  27  92 CALM      29.96S
Wtrbury/Oxford MOCLDY    32  28  86 CALM      29.94F
Bridgeport     CLEAR     37  34  87 W5        29.96F WCI  34
Meriden        FOG       31  29  92 CALM      29.96R VSB<1/4
New Haven      MOCLDY    37  34  89 VRB3      29.95F
Chester        PTSUNNY   37  32  81 W5        29.94R WCI  34
Groton         PTCLDY    36  34  92 N3        29.94F
Wilimantic     FOG       32  32 100 CALM      29.95S VSB<1/4

 IN RI

CITY           SKY/WX    TMP DP  RH WIND       PRES   REMARKS
Providence     CLOUDY    34  33  96 CALM      29.95S FOG
Block Island   CLOUDY    43  37  79 W8        29.95F
Westerly       MOCLDY    33  30  88 N3        29.95F FOG
 IN MA

CITY           SKY/WX    TMP DP  RH WIND       PRES   REMARKS
Boston         CLOUDY    37  34  89 SW8       29.94S WCI  31
Worcester      PTCLDY    30  28  92 W7        29.89S WCI  23
Westfield      PTCLDY    26  25  96 CALM      29.93S
Provincetown   CLEAR     41  32  70 W7        29.93F
Nantucket      PTCLDY    42  34  73 NW8       29.94F
$$

ANZ330-335-338-340-345-350-353-355-081400-
COASTAL MARINE OBSERVATIONS


STATION/POSITION TIME  SKY/WX   TEMP    WIND        PRES    VSBY  WAVE
                                AIR SEA DIR/SP/G                  HT/PER
                 (UTC)          (F)     (DEG/KT/KT) (MB)    (MI)  (FT/S)
NY HARB ENTRANCE 1150            43 52  270/ 14/ 17 1015.4          3/ 8
20 S FIRE ISLAND 1150            46 53  280/ 14/ 16 1015.1          4/ 8
GREAT SOUTH BAY  1215            40 43                N/A
23 SSW MONTAUK P 1250            47 54  250/ 14/ 16 1014.9          4/ 8
15 E BARNEGAT LI 1230               53                N/A           4/ 8
HUDSON CANYON    1150            49 57              1015.5          4/ 9
KINGS POINT      1236            42 48              1014.7
EXECUTION ROCKS  1245            42     250/  6/ 10   N/A
CENTRAL LI SOUND 1230            45 50  260/ 10/ 12   N/A           1/ 3
EASTERN LI SOUND NOT AVBL
ROBBINS REEF     1236            39     250/  8/ 10 1015.4
$$


>>>>>>>>>>>>>>>>>>>>>>>>>>>> KEY <<<<<<<<<<<<<<<<<<<<<<<<<<<
>                                                          <
>     SKY/WX - Sky Condition/Present Weather               <
>     TMP    - Temperature in Fahrenheit                   <
>     DP     - Dew Point in Fahrenheit                     <
>     RH     - Relative Humidity in Percent                <
>     WIND   - Direction (from) and Speed in MPH           <
>     PRES   - Mean Sea Level Pressure (inches of Hg)      <
>     WCI    - Wind Chill Index                            <
>     VSB    - VISIBILITY IN MILES                         <
>     HX     - HEAT INDEX                                  <
>     TC     - TEMPERATURE IN CELSIUS                      <
>     VRB    - VARIABLE WIND DIRECTION                     <
>                                                          <
>>>>>>>>>>>>>>>>>>>>>>>>>>>> KEY <<<<<<<<<<<<<<<<<<<<<<<<<<<




USA.gov is the U.S. government's official web portal to all federal, state and local government web resources and services.